�������l�o���
Date,Time,MP-1(��Sv/h),MP-2(��Sv/h),MP-3(��Sv/h),MP-4(��Sv/h),MP-5(��Sv/h),MP-6(��Sv/h),MP-7(��Sv/h),����,����(m/s),���J
2018/01/12,00:00,0.342,0.206,0.343,0.322,0.307,0.171,0.103,�k�k��,8.1,��
2018/01/12,00:10,0.340,0.206,0.343,0.322,0.305,0.171,0.101,�k�k��,7.8,��
2018/01/12,00:20,0.341,0.206,0.343,0.321,0.305,0.170,0.102,�k�k��,8.2,��
2018/01/12,00:30,0.340,0.205,0.343,0.321,0.305,0.171,0.102,�k�k��,7.4,��
2018/01/12,00:40,0.341,0.205,0.343,0.322,0.304,0.171,0.102,�k�k��,7.7,��
2018/01/12,00:50,0.340,0.206,0.342,0.322,0.305,0.170,0.102,�k�k��,8.2,��
2018/01/12,01:00,0.341,0.205,0.343,0.320,0.306,0.170,0.101,�k�k��,7.7,��
2018/01/12,01:10,0.340,0.207,0.344,0.321,0.305,0.170,0.102,�k,9.0,��
2018/01/12,01:20,0.341,0.206,0.343,0.321,0.304,0.170,0.101,�k�k��,9.5,��
2018/01/12,01:30,0.342,0.205,0.341,0.321,0.303,0.170,0.101,�k�k��,9.6,��
2018/01/12,01:40,0.341,0.206,0.344,0.321,0.305,0.170,0.102,�k�k��,9.8,��
2018/01/12,01:50,0.340,0.205,0.344,0.321,0.304,0.170,0.102,�k�k��,10.1,��
2018/01/12,02:00,0.341,0.207,0.343,0.322,0.303,0.170,0.101,�k�k��,7.6,��
2018/01/12,02:10,0.343,0.206,0.343,0.320,0.306,0.171,0.101,�k�k��,7.9,��
2018/01/12,02:20,0.341,0.206,0.343,0.322,0.305,0.169,0.102,�k�k��,7.5,��
2018/01/12,02:30,0.340,0.206,0.342,0.320,0.306,0.171,0.102,�k�k��,8.1,��
2018/01/12,02:40,0.341,0.205,0.343,0.321,0.304,0.170,0.102,�k�k��,7.8,��
2018/01/12,02:50,0.340,0.206,0.342,0.321,0.304,0.171,0.102,�k�k��,7.0,��
2018/01/12,03:00,0.342,0.206,0.343,0.321,0.305,0.171,0.102,�k�k��,6.6,��
2018/01/12,03:10,0.342,0.206,0.342,0.321,0.304,0.171,0.102,�k�k��,5.6,��
2018/01/12,03:20,0.340,0.205,0.342,0.322,0.304,0.169,0.102,�k�k��,5.4,��
2018/01/12,03:30,0.341,0.206,0.342,0.322,0.305,0.170,0.102,�k�k��,4.9,��
2018/01/12,03:40,0.341,0.206,0.344,0.320,0.303,0.170,0.102,�k�k��,6.2,��
2018/01/12,03:50,0.340,0.206,0.342,0.322,0.304,0.171,0.101,�k�k��,5.5,��
2018/01/12,04:00,0.341,0.206,0.343,0.321,0.304,0.170,0.102,�k�k��,5.3,��
2018/01/12,04:10,0.341,0.205,0.342,0.322,0.304,0.171,0.103,�k�k��,5.9,��
2018/01/12,04:20,0.340,0.206,0.341,0.321,0.305,0.170,0.101,�k�k��,5.2,��
2018/01/12,04:30,0.342,0.205,0.342,0.320,0.303,0.170,0.102,�k�k��,3.9,��
2018/01/12,04:40,0.341,0.206,0.343,0.321,0.303,0.170,0.101,�k�k��,4.9,��
2018/01/12,04:50,0.340,0.205,0.343,0.321,0.304,0.170,0.102,�k,5.6,��
2018/01/12,05:00,0.341,0.206,0.343,0.321,0.305,0.171,0.102,�k�k��,4.5,��
2018/01/12,05:10,0.342,0.206,0.343,0.322,0.303,0.170,0.102,�k�k��,4.8,��
2018/01/12,05:20,0.341,0.205,0.342,0.322,0.304,0.169,0.101,�k�k��,4.8,��
2018/01/12,05:30,0.341,0.206,0.342,0.322,0.304,0.169,0.101,�k�k��,3.7,��
2018/01/12,05:40,0.342,0.206,0.343,0.322,0.303,0.170,0.101,�k�k��,3.5,��
2018/01/12,05:50,0.341,0.206,0.343,0.323,0.304,0.170,0.102,�k�k��,4.1,��
2018/01/12,06:00,0.341,0.206,0.342,0.321,0.305,0.169,0.103,�k�k��,4.8,��
2018/01/12,06:10,0.341,0.206,0.343,0.322,0.303,0.170,0.102,�k�k��,5.1,��
2018/01/12,06:20,0.340,0.207,0.342,0.321,0.303,0.170,0.102,�k�k��,4.8,��
2018/01/12,06:30,0.341,0.205,0.342,0.320,0.304,0.170,0.102,�k�k��,4.2,��
2018/01/12,06:40,0.341,0.205,0.343,0.319,0.302,0.170,0.101,�k��,3.3,��
2018/01/12,06:50,0.340,0.206,0.343,0.320,0.304,0.169,0.102,�k�k��,3.1,��
2018/01/12,07:00,0.341,0.205,0.341,0.321,0.304,0.170,0.101,�k�k��,3.8,��
2018/01/12,07:10,0.340,0.206,0.343,0.320,0.304,0.169,0.102,�k�k��,2.7,��
2018/01/12,07:20,0.339,0.204,0.343,0.321,0.303,0.171,0.101,�k�k��,3.2,��
2018/01/12,07:30,0.340,0.205,0.342,0.320,0.304,0.170,0.101,�k�k��,3.5,��
2018/01/12,07:40,0.340,0.205,0.341,0.321,0.303,0.171,0.102,�k�k��,5.5,��
2018/01/12,07:50,0.340,0.205,0.343,0.320,0.305,0.170,0.102,�k�k��,6.6,��
2018/01/12,08:00,0.339,0.207,0.341,0.320,0.304,0.169,0.101,�k�k��,6.5,��
2018/01/12,08:10,0.340,0.206,0.343,0.320,0.302,0.170,0.102,�k�k��,5.9,��
2018/01/12,08:20,0.340,0.206,0.342,0.320,0.303,0.170,0.102,�k�k��,5.2,��
2018/01/12,08:30,0.341,0.206,0.342,0.320,0.304,0.170,0.101,�k�k��,4.8,��
2018/01/12,08:40,0.340,0.206,0.343,0.320,0.303,0.170,0.101,�k�k��,4.9,��
2018/01/12,08:50,0.338,0.205,0.342,0.320,0.304,0.170,0.101,�k�k��,2.1,��
2018/01/12,09:00,0.338,0.205,0.342,0.320,0.303,0.168,0.101,�k,1.9,��
2018/01/12,09:10,0.340,0.204,0.342,0.320,0.303,0.169,0.101,�k�k��,2.1,��
2018/01/12,09:20,0.340,0.205,0.342,0.320,0.302,0.170,0.101,�k,3.9,��
2018/01/12,09:30,0.341,0.204,0.343,0.319,0.304,0.170,0.101,�k�k��,3.9,��
2018/01/12,09:40,0.340,0.206,0.342,0.320,0.304,0.169,0.101,�k�k��,3.1,��
2018/01/12,09:50,0.339,0.206,0.342,0.319,0.303,0.170,0.102,�k,4.8,��
2018/01/12,10:00,0.341,0.204,0.342,0.319,0.303,0.169,0.101,�k�k��,2.5,��
2018/01/12,10:10,0.340,0.204,0.341,0.321,0.304,0.170,0.101,�k�k��,3.1,��
2018/01/12,10:20,0.339,0.204,0.341,0.321,0.303,0.170,0.102,�k�k��,1.7,��
2018/01/12,10:30,0.338,0.206,0.343,0.320,0.302,0.170,0.101,�k,1.6,��
2018/01/12,10:40,0.339,0.205,0.342,0.321,0.304,0.169,0.102,�k�k��,3.3,��
2018/01/12,10:50,0.339,0.204,0.342,0.319,0.304,0.168,0.102,�k�k��,3.2,��
2018/01/12,11:00,0.337,0.205,0.341,0.319,0.302,0.169,0.102,�k��,4.0,��
2018/01/12,11:10,0.338,0.204,0.341,0.320,0.304,0.169,0.102,�k��,3.6,��
2018/01/12,11:20,0.340,0.205,0.341,0.320,0.303,0.170,0.101,�k��,5.3,��
2018/01/12,11:30,0.339,0.206,0.343,0.320,0.304,0.170,0.101,�k��,3.9,��
2018/01/12,11:40,0.339,0.206,0.341,0.320,0.304,0.171,0.102,�k��,4.0,��
2018/01/12,11:50,0.338,0.205,0.341,0.321,0.304,0.171,0.102,�k�k��,3.6,��
2018/01/12,12:00,0.340,0.206,0.341,0.321,0.305,0.171,0.102,�k��,4.8,��
2018/01/12,12:10,0.339,0.205,0.342,0.320,0.306,0.169,0.101,���k��,5.1,��
2018/01/12,12:20,0.341,0.205,0.340,0.320,0.303,0.170,0.102,���k��,5.0,��
2018/01/12,12:30,0.338,0.205,0.340,0.320,0.305,0.171,0.101,���k��,2.8,��
2018/01/12,12:40,0.339,0.206,0.340,0.321,0.305,0.170,0.102,��,3.6,��
2018/01/12,12:50,0.340,0.206,0.340,0.322,0.305,0.170,0.102,���k��,3.9,��
2018/01/12,13:00,0.337,0.206,0.341,0.320,0.304,0.171,0.101,���k��,2.4,��
2018/01/12,13:10,0.339,0.207,0.341,0.320,0.305,0.170,0.102,��,3.8,��
2018/01/12,13:20,0.340,0.206,0.342,0.322,0.305,0.170,0.102,���k��,2.7,��
2018/01/12,13:30,0.340,0.206,0.342,0.321,0.305,0.170,0.102,�k��,2.1,��
2018/01/12,13:40,0.340,0.206,0.341,0.322,0.305,0.170,0.102,�k��,1.9,��
2018/01/12,13:50,0.341,0.206,0.342,0.321,0.303,0.171,0.101,�k�k��,1.5,��
2018/01/12,14:00,0.338,0.206,0.341,0.320,0.303,0.170,0.101,�k��,2.0,��
2018/01/12,14:10,0.340,0.205,0.343,0.321,0.304,0.170,0.102,���k��,1.5,��
2018/01/12,14:20,0.340,0.206,0.342,0.321,0.305,0.170,0.101,�k��,1.4,��
2018/01/12,14:30,0.342,0.204,0.343,0.321,0.305,0.170,0.102,�k��,2.2,��
2018/01/12,14:40,0.340,0.206,0.342,0.322,0.305,0.170,0.101,�k��,2.8,��
2018/01/12,14:50,0.340,0.206,0.344,0.321,0.304,0.170,0.102,�k��,2.8,��
2018/01/12,15:00,0.340,0.206,0.343,0.320,0.306,0.170,0.102,�k�k��,3.3,��
2018/01/12,15:10,0.342,0.207,0.343,0.321,0.306,0.170,0.101,���k��,2.7,��
2018/01/12,15:20,0.341,0.206,0.344,0.322,0.307,0.170,0.102,�k��,2.5,��
2018/01/12,15:30,0.340,0.208,0.343,0.321,0.305,0.169,0.102,�k��,2.2,��
2018/01/12,15:40,0.339,0.206,0.342,0.321,0.304,0.170,0.102,���k��,1.5,��
2018/01/12,15:50,0.340,0.206,0.341,0.322,0.305,0.170,0.101,�k��,1.2,��
2018/01/12,16:00,0.341,0.206,0.344,0.321,0.305,0.170,0.101,���k��,0.7,��
2018/01/12,16:10,0.342,0.206,0.342,0.321,0.305,0.170,0.101,���k��,0.7,��
2018/01/12,16:20,0.341,0.207,0.342,0.321,0.304,0.170,0.102,���k��,1.1,��
2018/01/12,16:30,0.339,0.206,0.342,0.322,0.306,0.171,0.102,-,CALM,��
2018/01/12,16:40,0.340,0.206,0.341,0.321,0.305,0.170,0.102,���k��,1.0,��
2018/01/12,16:50,0.342,0.206,0.342,0.322,0.304,0.171,0.101,-,CALM,��
2018/01/12,17:00,0.339,0.205,0.342,0.321,0.304,0.170,0.102,-,CALM,��
2018/01/12,17:10,0.340,0.206,0.343,0.323,0.304,0.170,0.102,��,1.0,��
2018/01/12,17:20,0.341,0.206,0.341,0.322,0.305,0.171,0.101,���k��,1.8,��
2018/01/12,17:30,0.340,0.206,0.341,0.321,0.304,0.171,0.101,���k��,3.4,��
2018/01/12,17:40,0.341,0.206,0.342,0.322,0.305,0.171,0.101,��,3.6,��
2018/01/12,17:50,0.341,0.207,0.343,0.323,0.305,0.171,0.101,��,3.1,��
2018/01/12,18:00,0.340,0.206,0.343,0.322,0.305,0.170,0.102,��,3.1,��
2018/01/12,18:10,0.339,0.206,0.343,0.322,0.304,0.170,0.102,���k��,2.5,��
2018/01/12,18:20,0.341,0.206,0.342,0.322,0.304,0.170,0.102,���k��,3.3,��
2018/01/12,18:30,0.341,0.206,0.342,0.322,0.304,0.170,0.102,���k��,4.1,��
2018/01/12,18:40,0.340,0.207,0.342,0.321,0.305,0.171,0.102,��,4.0,��
2018/01/12,18:50,0.340,0.206,0.343,0.321,0.305,0.171,0.102,��,5.1,��
2018/01/12,19:00,0.341,0.206,0.344,0.322,0.306,0.171,0.101,��,3.7,��
2018/01/12,19:10,0.341,0.206,0.343,0.321,0.304,0.172,0.102,���k��,4.1,��
2018/01/12,19:20,0.340,0.206,0.343,0.323,0.304,0.171,0.102,���k��,5.1,��
2018/01/12,19:30,0.340,0.207,0.343,0.323,0.305,0.170,0.102,���k��,5.9,��
2018/01/12,19:40,0.340,0.206,0.342,0.322,0.305,0.170,0.101,���k��,4.0,��
2018/01/12,19:50,0.341,0.206,0.343,0.321,0.304,0.171,0.102,���k��,3.3,��
2018/01/12,20:00,0.341,0.206,0.343,0.322,0.304,0.171,0.102,�k��,3.1,��
2018/01/12,20:10,0.340,0.206,0.342,0.320,0.302,0.171,0.101,���k��,4.4,��
2018/01/12,20:20,0.342,0.206,0.343,0.321,0.305,0.171,0.102,���k��,4.3,��
2018/01/12,20:30,0.340,0.206,0.343,0.322,0.305,0.170,0.102,���k��,6.0,��
2018/01/12,20:40,0.340,0.206,0.342,0.322,0.305,0.170,0.102,���k��,6.0,��
2018/01/12,20:50,0.340,0.205,0.342,0.323,0.304,0.171,0.101,�k��,5.9,��
2018/01/12,21:00,0.341,0.205,0.344,0.321,0.304,0.171,0.102,�k��,3.5,��
2018/01/12,21:10,0.341,0.205,0.343,0.322,0.305,0.170,0.102,�k�k��,2.8,��
2018/01/12,21:20,0.342,0.205,0.343,0.322,0.304,0.170,0.101,�k�k��,2.0,��
2018/01/12,21:30,0.341,0.206,0.343,0.322,0.305,0.171,0.101,�k�k��,4.3,��
2018/01/12,21:40,0.342,0.206,0.344,0.322,0.305,0.171,0.102,�k�k��,4.2,��
2018/01/12,21:50,0.340,0.207,0.343,0.321,0.304,0.170,0.101,�k�k��,3.8,��
2018/01/12,22:00,0.340,0.207,0.343,0.322,0.305,0.170,0.102,�k�k��,5.9,��
2018/01/12,22:10,0.342,0.206,0.343,0.322,0.306,0.170,0.101,�k,8.1,��
2018/01/12,22:20,0.342,0.207,0.343,0.322,0.305,0.170,0.102,�k,7.0,��
2018/01/12,22:30,0.340,0.207,0.344,0.321,0.305,0.171,0.102,�k,5.5,��
2018/01/12,22:40,0.341,0.207,0.343,0.323,0.304,0.170,0.102,�k,4.2,��
2018/01/12,22:50,0.341,0.206,0.341,0.322,0.304,0.170,0.102,�k,3.7,��
2018/01/12,23:00,0.341,0.207,0.343,0.322,0.305,0.171,0.102,�k,2.5,��
2018/01/12,23:10,0.342,0.206,0.344,0.322,0.306,0.170,0.102,�k,3.8,��
2018/01/12,23:20,0.341,0.206,0.344,0.323,0.304,0.171,0.102,�k,3.4,��
2018/01/12,23:30,0.340,0.207,0.344,0.321,0.304,0.170,0.101,�k,2.9,��
2018/01/12,23:40,0.340,0.205,0.343,0.323,0.305,0.171,0.103,�k�k��,2.6,��
2018/01/12,23:50,0.341,0.206,0.343,0.322,0.304,0.170,0.102,�k�k��,2.0,��
